Time,TemperatureF,DewpointF,PressureIn,WindDirection,WindDirectionDegrees,WindSpeedMPH,WindSpeedGustMPH,Humidity,HourlyPrecipIn,Conditions,Clouds,dailyrainin,SoftwareType,DateUTC
2013-04-18 00:00:00,44.4,37.0,29.35,ESE,109,4.0,8.0,75,0.00,,,0.00,Weather View 32 v70,2013-04-18 04:00:00,
2013-04-18 00:09:00,44.4,37.0,29.35,ESE,109,4.0,8.0,75,0.00,,,0.00,Weather View 32 v70,2013-04-18 04:09:00,
2013-04-18 00:10:00,44.4,37.0,29.32,ESE,103,3.0,6.0,75,0.00,,,0.00,Weather View 32 v70,2013-04-18 04:10:00,
2013-04-18 00:20:00,44.4,37.3,29.32,East,98,0.0,6.0,76,0.00,,,0.00,Weather View 32 v70,2013-04-18 04:20:00,
2013-04-18 00:30:00,44.4,37.3,29.32,ESE,107,3.0,5.0,76,0.00,,,0.00,Weather View 32 v70,2013-04-18 04:30:00,
2013-04-18 00:40:00,44.4,37.3,29.32,ESE,112,0.0,5.0,76,0.00,,,0.00,Weather View 32 v70,2013-04-18 04:40:00,
2013-04-18 00:50:00,44.4,37.7,29.32,ESE,122,4.0,4.0,77,0.00,,,0.00,Weather View 32 v70,2013-04-18 04:50:00,
2013-04-18 01:00:00,44.4,38.0,29.32,East,100,3.0,4.0,78,0.04,,,0.04,Weather View 32 v70,2013-04-18 05:00:00,
2013-04-18 01:10:00,44.8,39.0,29.29,SW,229,0.0,4.0,80,0.04,,,0.04,Weather View 32 v70,2013-04-18 05:10:00,
2013-04-18 01:20:00,45.1,40.3,29.29,NE,34,0.0,4.0,83,0.04,,,0.04,Weather View 32 v70,2013-04-18 05:20:00,
2013-04-18 01:30:00,45.3,40.8,29.29,South,187,0.0,4.0,84,0.04,,,0.04,Weather View 32 v70,2013-04-18 05:30:00,
2013-04-18 01:40:00,45.5,41.2,29.29,South,181,0.0,4.0,85,0.04,,,0.04,Weather View 32 v70,2013-04-18 05:40:00,
2013-04-18 01:49:00,45.5,41.5,29.26,SSE,160,2.0,4.0,86,0.04,,,0.04,Weather View 32 v70,2013-04-18 05:49:00,
2013-04-18 02:00:00,45.9,42.2,29.26,South,173,0.0,5.0,87,0.00,,,0.04,Weather View 32 v70,2013-04-18 06:00:00,
2013-04-18 02:10:00,46.0,42.4,29.26,South,182,0.0,5.0,87,0.00,,,0.04,Weather View 32 v70,2013-04-18 06:10:00,
2013-04-18 02:20:00,46.0,42.7,29.26,SSE,167,2.0,5.0,88,0.00,,,0.04,Weather View 32 v70,2013-04-18 06:20:00,
2013-04-18 02:30:00,46.2,42.9,29.26,ENE,77,2.0,5.0,88,0.00,,,0.04,Weather View 32 v70,2013-04-18 06:30:00,
2013-04-18 02:40:00,46.2,43.2,29.26,South,184,0.0,5.0,89,0.04,,,0.08,Weather View 32 v70,2013-04-18 06:40:00,
2013-04-18 02:50:00,46.4,43.3,29.23,ESE,120,3.0,5.0,89,0.35,,,0.39,Weather View 32 v70,2013-04-18 06:50:00,
2013-04-18 03:00:00,46.6,43.8,29.23,SSW,205,2.0,5.0,90,0.35,,,0.39,Weather View 32 v70,2013-04-18 07:00:00,
2013-04-18 03:10:00,46.6,44.1,29.21,ESE,104,4.0,5.0,91,0.35,,,0.39,Weather View 32 v70,2013-04-18 07:10:00,
2013-04-18 03:20:00,46.9,44.4,29.21,ESE,123,3.0,5.0,91,0.35,,,0.39,Weather View 32 v70,2013-04-18 07:20:00,
2013-04-18 03:29:00,46.9,44.4,29.21,ESE,109,0.0,5.0,91,0.35,,,0.39,Weather View 32 v70,2013-04-18 07:29:00,
2013-04-18 03:40:00,47.1,44.6,29.23,North,353,3.0,6.0,91,0.31,,,0.39,Weather View 32 v70,2013-04-18 07:40:00,
2013-04-18 03:50:00,46.8,44.0,29.21,ENE,76,3.0,6.0,90,0.00,,,0.39,Weather View 32 v70,2013-04-18 07:50:00,
2013-04-18 04:00:00,46.9,44.2,29.21,East,88,0.0,6.0,90,0.00,,,0.39,Weather View 32 v70,2013-04-18 08:00:00,
2013-04-18 04:10:00,46.9,44.2,29.18,ESE,110,3.0,6.0,90,0.00,,,0.39,Weather View 32 v70,2013-04-18 08:10:00,
2013-04-18 04:20:00,46.9,43.9,29.18,ESE,123,5.0,6.0,89,0.00,,,0.39,Weather View 32 v70,2013-04-18 08:20:00,
2013-04-18 04:30:00,46.9,43.6,29.18,ESE,113,3.0,6.0,88,0.00,,,0.39,Weather View 32 v70,2013-04-18 08:30:00,
2013-04-18 04:40:00,47.1,43.4,29.15,East,100,0.0,6.0,87,0.00,,,0.39,Weather View 32 v70,2013-04-18 08:40:00,
2013-04-18 04:49:00,46.9,43.0,29.15,ESE,112,0.0,5.0,86,0.00,,,0.39,Weather View 32 v70,2013-04-18 08:49:00,
2013-04-18 04:59:00,47.1,43.1,29.15,SSW,213,3.0,5.0,86,0.00,,,0.39,Weather View 32 v70,2013-04-18 08:59:00,
2013-04-18 05:10:00,47.1,43.1,29.21,NNW,338,5.0,8.0,86,0.00,,,0.39,Weather View 32 v70,2013-04-18 09:10:00,
2013-04-18 05:20:00,46.9,43.0,29.18,East,91,0.0,8.0,86,0.00,,,0.39,Weather View 32 v70,2013-04-18 09:20:00,
2013-04-18 05:30:00,46.9,43.3,29.18,ENE,63,4.0,8.0,87,0.00,,,0.39,Weather View 32 v70,2013-04-18 09:30:00,
2013-04-18 05:40:00,47.3,43.6,29.15,East,89,0.0,8.0,87,0.00,,,0.39,Weather View 32 v70,2013-04-18 09:40:00,
2013-04-18 05:50:00,47.5,44.1,29.15,North,350,4.0,8.0,88,0.04,,,0.43,Weather View 32 v70,2013-04-18 09:50:00,
2013-04-18 06:00:00,47.1,43.7,29.15,NE,42,0.0,8.0,88,0.08,,,0.47,Weather View 32 v70,2013-04-18 10:00:00,
2013-04-18 06:09:00,46.9,43.6,29.15,NE,40,0.0,8.0,88,0.08,,,0.47,Weather View 32 v70,2013-04-18 10:09:00,
2013-04-18 06:20:00,46.6,43.5,29.18,North,353,6.0,9.0,89,0.08,,,0.47,Weather View 32 v70,2013-04-18 10:20:00,
2013-04-18 06:29:00,46.2,43.2,29.18,ENE,61,0.0,9.0,89,0.08,,,0.47,Weather View 32 v70,2013-04-18 10:29:00,
2013-04-18 06:39:00,46.0,43.0,29.15,ENE,64,0.0,9.0,89,0.08,,,0.47,Weather View 32 v70,2013-04-18 10:39:00,
2013-04-18 06:49:00,46.0,43.0,29.12,ENE,71,0.0,9.0,89,0.04,,,0.47,Weather View 32 v70,2013-04-18 10:49:00,
2013-04-18 06:59:00,46.2,43.4,29.12,NNW,340,0.0,9.0,90,0.00,,,0.47,Weather View 32 v70,2013-04-18 10:59:00,
2013-04-18 07:10:00,46.2,43.4,29.12,East,99,3.0,9.0,90,0.00,,,0.47,Weather View 32 v70,2013-04-18 11:10:00,
2013-04-18 07:20:00,46.2,43.4,29.12,East,86,0.0,8.0,90,0.00,,,0.47,Weather View 32 v70,2013-04-18 11:20:00,
2013-04-18 07:30:00,46.4,43.6,29.12,ESE,114,3.0,3.0,90,0.00,,,0.47,Weather View 32 v70,2013-04-18 11:30:00,
2013-04-18 07:40:00,46.8,44.0,29.09,East,99,0.0,3.0,90,0.00,,,0.47,Weather View 32 v70,2013-04-18 11:40:00,
2013-04-18 07:50:00,47.1,44.3,29.09,East,99,0.0,3.0,90,0.00,,,0.47,Weather View 32 v70,2013-04-18 11:50:00,
2013-04-18 07:59:00,47.5,44.7,29.09,East,99,0.0,3.0,90,0.00,,,0.47,Weather View 32 v70,2013-04-18 11:59:00,
2013-04-18 08:09:00,48.0,45.2,29.06,East,101,0.0,3.0,90,0.00,,,0.47,Weather View 32 v70,2013-04-18 12:09:00,
2013-04-18 08:20:00,48.6,46.0,29.06,ESE,116,0.0,3.0,91,0.00,,,0.47,Weather View 32 v70,2013-04-18 12:20:00,
2013-04-18 08:29:00,49.3,46.8,29.06,SE,142,0.0,3.0,91,0.00,,,0.47,Weather View 32 v70,2013-04-18 12:29:00,
2013-04-18 08:39:00,50.5,48.3,29.06,SSE,161,0.0,4.0,92,0.00,,,0.47,Weather View 32 v70,2013-04-18 12:39:00,
2013-04-18 08:49:00,51.8,49.8,29.06,South,181,0.0,4.0,93,0.00,,,0.47,Weather View 32 v70,2013-04-18 12:49:00,
2013-04-18 09:00:00,53.1,51.4,29.06,SE,138,0.0,4.0,94,0.00,,,0.47,Weather View 32 v70,2013-04-18 13:00:00,
2013-04-18 09:10:00,54.1,52.7,29.03,South,171,3.0,6.0,95,0.00,,,0.47,Weather View 32 v70,2013-04-18 13:10:00,
2013-04-18 09:15:00,54.1,52.7,29.03,South,171,3.0,6.0,95,0.00,,,0.47,Weather View 32 v70,2013-04-18 13:15:00,
2013-04-18 09:30:00,57.6,56.1,29.03,SSW,192,3.0,6.0,95,0.00,,,0.47,Weather View 32 v70,2013-04-18 13:30:00,
2013-04-18 09:40:00,59.2,55.3,29.00,South,185,4.0,8.0,87,0.00,,,0.47,Weather View 32 v70,2013-04-18 13:40:00,
2013-04-18 09:50:00,61.0,54.4,29.00,South,169,3.0,11.0,79,0.00,,,0.47,Weather View 32 v70,2013-04-18 13:50:00,
2013-04-18 10:00:00,62.6,54.2,29.00,SSW,197,5.0,12.0,74,0.00,,,0.47,Weather View 32 v70,2013-04-18 14:00:00,
2013-04-18 10:10:00,63.1,53.6,29.00,SW,225,6.0,12.0,71,0.00,,,0.47,Weather View 32 v70,2013-04-18 14:10:00,
2013-04-18 10:16:00,63.1,53.6,29.00,SW,225,6.0,12.0,71,0.00,,,0.47,Weather View 32 v70,2013-04-18 14:16:00,
2013-04-18 10:30:00,64.2,54.2,29.00,SSW,196,6.0,12.0,70,0.00,,,0.47,Weather View 32 v70,2013-04-18 14:30:00,
2013-04-18 10:40:00,65.3,54.4,29.00,SSW,197,5.0,12.0,68,0.00,,,0.47,Weather View 32 v70,2013-04-18 14:40:00,
2013-04-18 10:50:00,66.0,55.1,29.00,SSW,206,3.0,12.0,68,0.00,,,0.47,Weather View 32 v70,2013-04-18 14:50:00,
2013-04-18 11:00:00,67.1,55.3,29.00,SSW,198,6.0,11.0,66,0.00,,,0.47,Weather View 32 v70,2013-04-18 15:00:00,
2013-04-18 11:10:00,67.8,54.3,29.00,South,184,5.0,13.0,62,0.00,,,0.47,Weather View 32 v70,2013-04-18 15:10:00,
2013-04-18 11:17:00,67.8,54.3,29.00,South,184,5.0,13.0,62,0.00,,,0.47,Weather View 32 v70,2013-04-18 15:17:00,
2013-04-18 11:30:00,68.5,55.0,28.97,South,176,11.0,13.0,62,0.00,,,0.47,Weather View 32 v70,2013-04-18 15:30:00,
2013-04-18 11:40:00,68.9,54.9,28.97,SW,220,4.0,13.0,61,0.00,,,0.47,Weather View 32 v70,2013-04-18 15:40:00,
2013-04-18 11:50:00,69.8,54.8,28.97,SSW,197,5.0,13.0,59,0.00,,,0.47,Weather View 32 v70,2013-04-18 15:50:00,
2013-04-18 12:00:00,71.1,54.0,28.97,South,181,6.0,13.0,55,0.00,,,0.47,Weather View 32 v70,2013-04-18 16:00:00,
2013-04-18 12:10:00,71.2,53.7,28.94,South,185,8.0,15.0,54,0.00,,,0.47,Weather View 32 v70,2013-04-18 16:10:00,
2013-04-18 12:18:00,71.2,53.7,28.94,South,185,8.0,15.0,54,0.00,,,0.47,Weather View 32 v70,2013-04-18 16:18:00,
2013-04-18 12:30:00,72.5,53.3,28.94,South,188,8.0,15.0,51,0.00,,,0.47,Weather View 32 v70,2013-04-18 16:30:00,
2013-04-18 12:40:00,73.4,53.0,28.91,SSW,194,10.0,16.0,49,0.00,,,0.47,Weather View 32 v70,2013-04-18 16:40:00,
2013-04-18 12:50:00,72.9,52.5,28.91,South,190,8.0,16.0,49,0.00,,,0.47,Weather View 32 v70,2013-04-18 16:50:00,
2013-04-18 13:00:00,72.9,53.1,28.91,SSW,193,11.0,16.0,50,0.00,,,0.47,Weather View 32 v70,2013-04-18 17:00:00,
2013-04-18 13:10:00,72.5,52.7,28.91,SSW,199,6.0,16.0,50,0.00,,,0.47,Weather View 32 v70,2013-04-18 17:10:00,
2013-04-18 13:19:00,72.5,52.7,28.91,SSW,199,6.0,16.0,50,0.00,,,0.47,Weather View 32 v70,2013-04-18 17:19:00,
2013-04-18 13:30:00,72.0,53.3,28.88,SSW,192,6.0,17.0,52,0.00,,,0.47,Weather View 32 v70,2013-04-18 17:30:00,
2013-04-18 13:40:00,68.5,57.9,28.91,SSW,198,8.0,17.0,69,0.04,,,0.51,Weather View 32 v70,2013-04-18 17:40:00,
2013-04-18 13:50:00,66.9,56.8,28.91,South,183,8.0,17.0,70,0.08,,,0.55,Weather View 32 v70,2013-04-18 17:50:00,
2013-04-18 14:00:00,66.2,56.1,28.91,SW,223,8.0,17.0,70,0.08,,,0.55,Weather View 32 v70,2013-04-18 18:00:00,
2013-04-18 14:10:00,65.8,55.8,28.91,SW,226,6.0,17.0,70,0.08,,,0.55,Weather View 32 v70,2013-04-18 18:10:00,
2013-04-18 14:19:00,65.8,55.8,28.91,SW,226,6.0,17.0,70,0.08,,,0.55,Weather View 32 v70,2013-04-18 18:19:00,
2013-04-18 14:30:00,66.2,55.3,28.91,South,180,6.0,14.0,68,0.08,,,0.55,Weather View 32 v70,2013-04-18 18:30:00,
2013-04-18 14:40:00,66.2,55.7,28.91,SSW,204,6.0,13.0,69,0.04,,,0.55,Weather View 32 v70,2013-04-18 18:40:00,
2013-04-18 14:50:00,65.8,56.1,28.94,South,185,6.0,11.0,71,0.00,,,0.55,Weather View 32 v70,2013-04-18 18:50:00,
2013-04-18 15:00:00,66.0,56.7,28.94,SSW,206,6.0,11.0,72,0.00,,,0.55,Weather View 32 v70,2013-04-18 19:00:00,
2013-04-18 15:10:00,66.6,56.4,28.94,SSW,192,3.0,11.0,70,0.00,,,0.55,Weather View 32 v70,2013-04-18 19:10:00,
2013-04-18 15:20:00,66.7,56.2,28.91,SSW,192,6.0,11.0,69,0.00,,,0.55,Weather View 32 v70,2013-04-18 19:20:00,
2013-04-18 15:30:00,67.3,55.1,28.91,SSW,203,5.0,11.0,65,0.00,,,0.55,Weather View 32 v70,2013-04-18 19:30:00,
2013-04-18 15:40:00,67.3,53.3,28.94,SW,218,12.0,13.0,61,0.00,,,0.55,Weather View 32 v70,2013-04-18 19:40:00,
2013-04-18 15:50:00,67.3,52.9,28.94,SSW,210,11.0,14.0,60,0.00,,,0.55,Weather View 32 v70,2013-04-18 19:50:00,
2013-04-18 16:00:00,67.1,53.6,28.94,SSW,193,5.0,14.0,62,0.00,,,0.55,Weather View 32 v70,2013-04-18 20:00:00,
2013-04-18 16:10:00,66.7,54.1,28.94,SSW,195,7.0,14.0,64,0.00,,,0.55,Weather View 32 v70,2013-04-18 20:10:00,
2013-04-18 16:20:00,66.4,54.6,28.97,South,191,6.0,14.0,66,0.00,,,0.55,Weather View 32 v70,2013-04-18 20:20:00,
2013-04-18 16:30:00,66.0,54.7,28.97,SW,217,5.0,14.0,67,0.00,,,0.55,Weather View 32 v70,2013-04-18 20:30:00,
2013-04-18 16:40:00,65.8,55.0,28.97,SSW,207,5.0,14.0,68,0.00,,,0.55,Weather View 32 v70,2013-04-18 20:40:00,
2013-04-18 16:50:00,65.1,55.8,28.97,SSW,192,3.0,12.0,72,0.00,,,0.55,Weather View 32 v70,2013-04-18 20:50:00,
2013-04-18 17:00:00,64.2,56.5,28.97,South,191,6.0,12.0,76,0.00,,,0.55,Weather View 32 v70,2013-04-18 21:00:00,
2013-04-18 17:10:00,63.5,56.9,28.97,SSW,198,5.0,11.0,79,0.00,,,0.55,Weather View 32 v70,2013-04-18 21:10:00,
2013-04-18 17:20:00,62.8,56.2,28.94,SSW,208,9.0,11.0,79,0.04,,,0.59,Weather View 32 v70,2013-04-18 21:20:00,
2013-04-18 17:30:00,62.8,55.8,28.94,SSW,208,4.0,11.0,78,0.04,,,0.59,Weather View 32 v70,2013-04-18 21:30:00,
2013-04-18 17:40:00,62.8,56.8,28.94,South,189,4.0,11.0,81,0.04,,,0.59,Weather View 32 v70,2013-04-18 21:40:00,
2013-04-18 17:50:00,62.6,57.0,28.94,SSW,194,5.0,11.0,82,0.04,,,0.59,Weather View 32 v70,2013-04-18 21:50:00,
2013-04-18 18:00:00,62.2,56.3,28.94,SSW,203,4.0,11.0,81,0.04,,,0.59,Weather View 32 v70,2013-04-18 22:00:00,
2013-04-18 18:10:00,62.2,56.0,28.94,SSW,194,5.0,11.0,80,0.04,,,0.59,Weather View 32 v70,2013-04-18 22:10:00,
2013-04-18 18:20:00,62.2,55.3,28.91,SSW,206,7.0,11.0,78,0.00,,,0.59,Weather View 32 v70,2013-04-18 22:20:00,
2013-04-18 18:30:00,62.2,55.3,28.91,SW,217,6.0,11.0,78,0.00,,,0.59,Weather View 32 v70,2013-04-18 22:30:00,
2013-04-18 18:40:00,62.1,55.1,28.94,SSW,197,6.0,11.0,78,0.00,,,0.59,Weather View 32 v70,2013-04-18 22:40:00,
2013-04-18 18:50:00,62.1,54.7,28.94,SSW,192,4.0,11.0,77,0.00,,,0.59,Weather View 32 v70,2013-04-18 22:50:00,
2013-04-18 19:00:00,62.1,54.7,28.94,SW,215,4.0,11.0,77,0.00,,,0.59,Weather View 32 v70,2013-04-18 23:00:00,
2013-04-18 19:10:00,62.1,54.7,28.94,SSW,203,4.0,11.0,77,0.00,,,0.59,Weather View 32 v70,2013-04-18 23:10:00,
2013-04-18 19:20:00,62.1,54.4,28.94,SSW,198,5.0,11.0,76,0.00,,,0.59,Weather View 32 v70,2013-04-18 23:20:00,
2013-04-18 19:30:00,61.9,54.2,28.94,SSW,193,8.0,10.0,76,0.00,,,0.59,Weather View 32 v70,2013-04-18 23:30:00,
2013-04-18 19:40:00,61.7,53.7,28.94,SSW,213,5.0,10.0,75,0.00,,,0.59,Weather View 32 v70,2013-04-18 23:40:00,
2013-04-18 19:50:00,61.5,54.2,28.94,SSW,193,5.0,10.0,77,0.00,,,0.59,Weather View 32 v70,2013-04-18 23:50:00,
2013-04-18 20:00:00,61.3,53.7,28.94,South,176,6.0,10.0,76,0.00,,,0.59,Weather View 32 v70,2013-04-19 00:00:00,
2013-04-18 20:10:00,61.2,53.9,28.94,SSW,192,5.0,10.0,77,0.00,,,0.59,Weather View 32 v70,2013-04-19 00:10:00,
2013-04-18 20:20:00,61.0,54.1,28.94,South,184,7.0,10.0,78,0.00,,,0.59,Weather View 32 v70,2013-04-19 00:20:00,
2013-04-18 20:30:00,60.8,54.6,28.94,South,177,5.0,10.0,80,0.00,,,0.59,Weather View 32 v70,2013-04-19 00:30:00,
2013-04-18 20:40:00,60.4,54.6,28.94,SSW,204,6.0,10.0,81,0.00,,,0.59,Weather View 32 v70,2013-04-19 00:40:00,
2013-04-18 20:50:00,60.3,55.1,28.94,SW,221,7.0,10.0,83,0.00,,,0.59,Weather View 32 v70,2013-04-19 00:50:00,
2013-04-18 21:00:00,60.1,55.2,28.94,South,189,6.0,10.0,84,0.00,,,0.59,Weather View 32 v70,2013-04-19 01:00:00,
2013-04-18 21:10:00,60.1,55.2,28.94,South,184,3.0,10.0,84,0.00,,,0.59,Weather View 32 v70,2013-04-19 01:10:00,
2013-04-18 21:20:00,59.9,55.0,28.94,SSW,198,5.0,10.0,84,0.00,,,0.59,Weather View 32 v70,2013-04-19 01:20:00,
2013-04-18 21:25:00,59.9,55.0,28.94,SSW,198,5.0,10.0,84,0.00,,,0.59,Weather View 32 v70,2013-04-19 01:25:00,
2013-04-18 21:40:00,59.7,54.9,28.94,South,188,3.0,9.0,84,0.00,,,0.59,Weather View 32 v70,2013-04-19 01:40:00,
2013-04-18 21:50:00,59.5,55.0,28.94,South,185,5.0,9.0,85,0.04,,,0.63,Weather View 32 v70,2013-04-19 01:50:00,
2013-04-18 22:00:00,59.4,55.5,28.94,South,188,8.0,9.0,87,0.04,,,0.63,Weather View 32 v70,2013-04-19 02:00:00,
2013-04-18 22:10:00,59.4,55.8,28.94,SSW,202,3.0,9.0,88,0.04,,,0.63,Weather View 32 v70,2013-04-19 02:10:00,
2013-04-18 22:20:00,59.2,55.9,28.91,South,171,5.0,9.0,89,0.04,,,0.63,Weather View 32 v70,2013-04-19 02:20:00,
2013-04-18 22:26:00,59.2,55.9,28.91,South,171,5.0,9.0,89,0.04,,,0.63,Weather View 32 v70,2013-04-19 02:26:00,
2013-04-18 22:40:00,59.0,56.4,28.91,South,187,4.0,9.0,91,0.04,,,0.63,Weather View 32 v70,2013-04-19 02:40:00,
2013-04-18 22:50:00,58.8,56.2,28.91,South,184,3.0,9.0,91,0.04,,,0.67,Weather View 32 v70,2013-04-19 02:50:00,
2013-04-18 23:00:00,58.8,56.2,28.91,South,191,3.0,9.0,91,0.04,,,0.67,Weather View 32 v70,2013-04-19 03:00:00,
2013-04-18 23:10:00,58.8,56.2,28.91,SSW,197,2.0,9.0,91,0.04,,,0.67,Weather View 32 v70,2013-04-19 03:10:00,
2013-04-18 23:20:00,58.8,56.2,28.94,SSW,192,4.0,9.0,91,0.08,,,0.71,Weather View 32 v70,2013-04-19 03:20:00,
2013-04-18 23:27:00,58.8,56.2,28.94,SSW,192,4.0,9.0,91,0.08,,,0.71,Weather View 32 v70,2013-04-19 03:27:00,
2013-04-18 23:40:00,58.6,56.3,28.91,South,189,5.0,9.0,92,0.08,,,0.71,Weather View 32 v70,2013-04-19 03:40:00,
2013-04-18 23:50:00,58.5,56.1,28.91,SSE,150,4.0,8.0,92,0.08,,,0.75,Weather View 32 v70,2013-04-19 03:50:00,